KG4S Weather Reports


time (UTC)temp
C
wind
direction
speed
KPH
gust
KPH
rain 1hr
cm
rain 24hr
cm
rain mn
cm
humidity
%
barometer
mb
20260903055939 -17 0.0 0.0 0.00 0.00 0.00 1018.1
20260903055439 -17 0.0 0.0 0.00 0.00 0.00 1018.0
20260903054938 -17 0.0 0.0 0.00 0.00 0.00 1018.1
20260903054519 -17 0.0 0.0 0.00 0.00 0.00 1018.4
20260903053939 -17 0.0 0.0 0.00 0.00 0.00 1018.3
20260903053439 -17 0.0 0.0 0.00 0.00 0.00 1018.3
20260903052939 -17 0.0 0.0 0.00 0.00 0.00 1018.1
20260903052438 -17 0.0 0.0 0.00 0.00 0.00 1018.1
20260903051939 -17 0.0 0.0 0.00 0.00 0.00 1017.9
20260903051459 -17 0.0 0.0 0.00 0.00 0.00 1018.3
20260903050939 -17 0.0 0.0 0.00 0.00 0.00 1018.1
20260903050439 -17 0.0 0.0 0.00 0.00 0.00 1018.0
20260903050000 -17 0.0 0.0 0.00 0.00 0.00 1018.0
20260903045439 -17 0.0 0.0 0.00 0.00 0.00 1018.1
20260903044938 -17 0.0 0.0 0.00 0.00 0.00 1018.2
20260903044438 -17 0.0 0.0 0.00 0.00 0.00 1018.0
20260903043939 -17 0.0 0.0 0.00 0.00 0.00 1018.1
20260903043458 -17 0.0 0.0 0.00 0.00 0.00 1018.0
20260903042959 -17 0.0 0.0 0.00 0.00 0.00 1018.1
20260903042439 -17 0.0 0.0 0.00 0.00 0.00 1018.1
20260903041939 -17 0.0 0.0 0.00 0.00 0.00 1018.0
20260903041439 -17 0.0 0.0 0.00 0.00 0.00 1018.1
20260903040959 -17 0.0 0.0 0.00 0.00 0.00 1018.0
20260903040439 23 0.0 0.0 0.00 0.00 0.00 93 1018.3
20260903035939 23 0.0 0.0 0.00 0.00 0.00 93 1018.1
20260903035438 -17 0.0 0.0 0.00 0.00 0.00 1018.2
20260903034939 23 0.0 0.0 0.00 0.00 0.00 93 1018.3
20260903034438 23 0.0 0.0 0.00 0.00 0.00 93 1018.1
20260903033939 23 0.0 0.0 0.00 0.00 0.00 93 1018.2
20260903033439 23 0.0 0.0 0.00 0.00 0.00 94 1018.3
20260903032939 23 0.0 0.0 0.00 0.00 0.00 94 1018.1
20260903032459 23 0.0 0.0 0.00 0.00 0.00 94 1018.3
20260903031939 23 0.0 0.0 0.00 0.00 0.00 94 1018.1
20260903031439 23 0.0 0.0 0.00 0.00 0.00 94 1018.4
20260903030959 23 0.0 0.0 0.00 0.00 0.00 94 1018.4
20260903030439 23 0.0 0.0 0.00 0.00 0.00 94 1018.3
20260903025939 23 0.0 0.0 0.00 0.00 0.00 94 1018.5
20260903025439 23 0.0 0.0 0.00 0.00 0.00 94 1018.4
20260903024940 23 0.0 0.0 0.00 0.00 0.00 94 1018.4
20260903024459 23 0.0 0.0 0.00 0.00 0.00 94 1018.3
20260903023939 23 0.0 0.0 0.00 0.00 0.00 93 1018.4
20260903023439 23 0.0 0.0 0.00 0.00 0.00 93 1018.3
20260903022939 24 0.0 0.0 0.00 0.00 0.00 93 1018.5
20260903022439 24 0.0 0.0 0.00 0.00 0.00 93 1018.5
20260903021958 24 0.0 0.0 0.00 0.00 0.00 93 1018.4
20260903021459 24 0.0 0.0 0.00 0.00 0.00 93 1018.6
20260903020938 24 0.0 0.0 0.00 0.00 0.00 92 1018.5
20260903020459 24 0.0 0.0 0.00 0.00 0.00 92 1018.5
20260903015938 24 0.0 0.0 0.00 0.00 0.00 92 1018.4
20260903015438 25 0.0 0.0 0.00 0.00 0.00 92 1018.4
20260903014958 25 0.0 0.0 0.00 0.00 0.00 91 1018.2
20260903014438 25 0.0 0.0 0.00 0.00 0.00 91 1018.3
20260903013939 25 0.0 0.0 0.00 0.00 0.00 90 1018.3
20260903013438 25 0.0 0.0 0.00 0.00 0.00 90 1018.1
20260903012939 25 0.0 0.0 0.00 0.00 0.00 90 1018.3
20260903012459 25 0.0 0.0 0.00 0.00 0.00 89 1018.3
20260903011938 25 0.0 0.0 0.00 0.00 0.00 89 1018.0
20260903011439 26 0.0 0.0 0.00 0.00 0.00 89 1018.0
20260903010938 26 0.0 0.0 0.00 0.00 0.00 88 1017.9
20260903010438 26 0.0 0.0 0.00 0.00 0.00 86 1018.0
20260903005938 26 0.0 0.0 0.00 0.00 0.00 85 1017.8
20260903005439 26 0.0 0.0 0.00 0.00 0.00 85 1017.8
20260903004938 27 0.0 0.0 0.00 0.00 0.00 84 1017.7
20260903004438 27 0.0 0.0 0.00 0.00 0.00 83 1017.8
20260903003958 27 0.0 0.0 0.00 0.00 0.00 81 1017.7
20260903003438 27 0.0 0.0 0.00 0.00 0.00 79 1017.7
20260903002939 28 0.0 0.0 0.00 0.00 0.00 78 1017.6
20260903002459 28 0.0 0.0 0.00 0.00 0.00 75 1017.6
20260903001938 28 0.0 0.0 0.00 0.00 0.00 70 1017.6
20260903001438 28 0.0 0.0 0.00 0.00 0.00 68 1017.6
20260903000939 29 0.0 0.0 0.00 0.00 0.00 67 1017.6
20260903000439 30 0.0 0.0 0.00 0.00 0.00 63 1017.6
20260902235939 31 0.0 0.0 0.00 0.00 0.00 62 1017.7
20260902235439 31 0.0 0.0 0.00 0.00 0.00 65 1017.6
20260902234939 32 0.0 0.0 0.00 0.00 0.00 59 1017.6
20260902234439 32 0.0 0.0 0.00 0.00 0.00 55 1017.6
20260902233939 33 0.0 0.0 0.00 0.00 0.00 52 1017.6
20260902233439 33 0.0 0.0 0.00 0.00 0.00 52 1017.8
20260902232939 33 0.0 0.0 0.00 0.00 0.00 52 1017.8
20260902232439 33 0.0 0.0 0.00 0.00 0.00 53 1017.8
20260902231939 34 0.0 0.0 0.00 0.00 0.00 52 1017.9
20260902231459 33 0.0 0.0 0.00 0.00 0.00 53 1017.9
20260902230959 33 0.0 0.0 0.00 0.00 0.00 55 1017.9
20260902230439 33 0.0 0.0 0.00 0.00 0.00 53 1017.7
20260902225939 34 0.0 0.0 0.00 0.00 0.00 51 1018.0
20260902225439 34 0.0 0.0 0.00 0.00 0.00 48 1018.0
20260902224939 34 0.0 1.6 0.00 0.00 0.00 49 1017.9
20260902224438 33 0.0 1.6 0.00 0.00 0.00 48 1017.9
20260902223939 34 0.0 3.2 0.00 0.00 0.00 47 1017.9
20260902223439 34 0.0 0.0 0.00 0.00 0.00 48 1017.9
20260902222939 34 0.0 1.6 0.00 0.00 0.00 47 1017.9
20260902222439 34 0.0 0.0 0.00 0.00 0.00 45 1018.0
20260902221938 34 209 1.6 3.2 0.00 0.00 0.00 46 1018.1
20260902221439 34 0.0 0.0 0.00 0.00 0.00 47 1018.0
20260902220938 33 0.0 1.6 0.00 0.00 0.00 46 1018.0
20260902220439 34 0.0 1.6 0.00 0.00 0.00 45 1018.1
20260902215938 33 0.0 3.2 0.00 0.00 0.00 46 1018.1
20260902215438 33 155 1.6 3.2 0.00 0.00 0.00 45 1018.2
20260902214938 33 203 3.2 4.8 0.00 0.00 0.00 46 1018.1
20260902214439 34 244 1.6 3.2 0.00 0.00 0.00 46 1018.0
20260902213938 35 150 1.6 3.2 0.00 0.00 0.00 46 1018.0
20260902213439 34 6 3.2 4.8 0.00 0.00 0.00 46 1018.2
20260902212939 34 193 1.6 4.8 0.00 0.00 0.00 46 1018.1
20260902212459 35 0.0 3.2 0.00 0.00 0.00 45 1018.1
20260902211938 34 185 1.6 1.6 0.00 0.00 0.00 46 1018.1
20260902211439 34 74 1.6 3.2 0.00 0.00 0.00 45 1018.2
20260902210939 34 254 1.6 3.2 0.00 0.00 0.00 46 1018.3
20260902210438 33 263 1.6 4.8 0.00 0.00 0.00 48 1018.3
20260902205939 33 222 1.6 4.8 0.00 0.00 0.00 48 1018.3
20260902205458 33 242 1.6 8.0 0.00 0.00 0.00 47 1018.3
20260902204939 33 214 3.2 6.4 0.00 0.00 0.00 47 1018.4
20260902204439 35 265 1.6 6.4 0.00 0.00 0.00 46 1018.3
20260902203958 34 339 3.2 4.8 0.00 0.00 0.00 46 1018.3
20260902203438 34 277 3.2 8.0 0.00 0.00 0.00 45 1018.4
20260902202938 35 309 1.6 3.2 0.00 0.00 0.00 46 1018.4
20260902202438 35 0.0 3.2 0.00 0.00 0.00 45 1018.5
20260902201959 35 118 1.6 3.2 0.00 0.00 0.00 46 1018.4
20260902201438 35 63 1.6 3.2 0.00 0.00 0.00 45 1018.5
20260902200938 34 21 1.6 4.8 0.00 0.00 0.00 46 1018.5
20260902200439 33 355 1.6 3.2 0.00 0.00 0.00 47 1018.6
20260902195958 33 250 3.2 6.4 0.00 0.00 0.00 47 1018.8
20260902195458 34 210 3.2 4.8 0.00 0.00 0.00 47 1018.9
20260902194938 34 207 1.6 3.2 0.00 0.00 0.00 48 1018.9
20260902194438 33 278 3.2 4.8 0.00 0.00 0.00 49 1018.9
20260902193938 33 219 1.6 3.2 0.00 0.00 0.00 51 1019.0
20260902193439 33 177 1.6 4.8 0.00 0.00 0.00 50 1019.0
20260902192959 33 202 3.2 6.4 0.00 0.00 0.00 50 1019.2
20260902192439 33 290 3.2 8.0 0.00 0.00 0.00 50 1019.2
20260902191938 33 216 4.8 4.8 0.00 0.00 0.00 50 1019.1
20260902191440 33 252 1.6 6.4 0.00 0.00 0.00 48 1019.2
20260902190938 33 253 1.6 3.2 0.00 0.00 0.00 48 1019.2
20260902190439 33 276 1.6 6.4 0.00 0.00 0.00 49 1019.2
20260902185939 33 153 1.6 3.2 0.00 0.00 0.00 47 1019.3
20260902185458 33 14 1.6 3.2 0.00 0.00 0.00 49 1019.5
20260902184958 33 64 3.2 6.4 0.00 0.00 0.00 50 1019.4
20260902184438 33 0.0 3.2 0.00 0.00 0.00 49 1019.5
20260902183938 33 81 1.6 3.2 0.00 0.00 0.00 50 1019.5
20260902183439 33 341 1.6 4.8 0.00 0.00 0.00 51 1019.5
20260902182938 32 181 1.6 3.2 0.00 0.00 0.00 52 1019.6
20260902182438 32 206 3.2 4.8 0.00 0.00 0.00 54 1019.5
20260902181938 33 229 1.6 3.2 0.00 0.00 0.00 50 1019.6
20260902181438 32 30 3.2 3.2 0.00 0.00 0.00 51 1019.7
20260902180958 33 0.0 3.2 0.00 0.00 0.00 52 1019.8
20260902180439 33 72 3.2 4.8 0.00 0.00 0.00 52 1019.8
20260902175938 32 315 1.6 4.8 0.00 0.00 0.00 51 1020.0
20260902175438 32 123 1.6 4.8 0.00 0.00 0.00 52 1020.0
20260902174938 32 259 3.2 4.8 0.00 0.00 0.00 51 1019.9
20260902174459 32 199 1.6 4.8 0.00 0.00 0.00 52 1020.0
20260902173938 32 217 3.2 4.8 0.00 0.00 0.00 53 1020.0
20260902173438 32 295 1.6 4.8 0.00 0.00 0.00 55 1020.2
20260902172938 32 197 1.6 4.8 0.00 0.00 0.00 56 1020.2
20260902172438 32 188 3.2 6.4 0.00 0.00 0.00 57 1020.1
20260902171938 32 0.0 4.8 0.00 0.00 0.00 58 1020.3
20260902171438 31 0.0 3.2 0.00 0.00 0.00 59 1020.3
20260902170939 32 216 1.6 3.2 0.00 0.00 0.00 59 1020.4
20260902170458 31 56 3.2 4.8 0.00 0.00 0.00 60 1020.3
20260902165938 31 56 3.2 3.2 0.00 0.00 0.00 58 1020.5
20260902165438 31 196 1.6 3.2 0.00 0.00 0.00 60 1020.4
20260902164938 31 0.0 3.2 0.00 0.00 0.00 61 1020.5
20260902164438 31 118 1.6 4.8 0.00 0.00 0.00 63 1020.7
20260902163958 31 183 4.8 4.8 0.00 0.00 0.00 61 1020.7
20260902163438 31 138 3.2 3.2 0.00 0.00 0.00 61 1020.8
20260902162938 31 13 3.2 6.4 0.00 0.00 0.00 63 1020.9
20260902162438 31 40 3.2 4.8 0.00 0.00 0.00 64 1021.0
20260902161938 30 50 3.2 3.2 0.00 0.00 0.00 64 1021.0
20260902161438 30 1 1.6 4.8 0.00 0.00 0.00 64 1021.0
20260902160939 31 35 3.2 6.4 0.00 0.00 0.00 63 1020.9
20260902160519 30 26 1.6 3.2 0.00 0.00 0.00 67 1021.0
20260902155939 30 0.0 4.8 0.00 0.00 0.00 66 1021.1
20260902155439 30 169 4.8 6.4 0.00 0.00 0.00 67 1021.0
20260902154959 30 46 6.4 6.4 0.00 0.00 0.00 67 1021.1
20260902154439 30 141 1.6 4.8 0.00 0.00 0.00 67 1021.1
20260902153938 30 29 1.6 3.2 0.00 0.00 0.00 68 1021.1
20260902153438 30 0.0 3.2 0.00 0.00 0.00 69 1021.1
20260902152939 29 34 3.2 4.8 0.00 0.00 0.00 69 1021.1
20260902152459 29 90 3.2 4.8 0.00 0.00 0.00 70 1021.1
20260902151939 29 110 1.6 4.8 0.00 0.00 0.00 70 1021.1
20260902151439 29 198 1.6 6.4 0.00 0.00 0.00 70 1021.1
20260902150939 29 96 3.2 3.2 0.00 0.00 0.00 71 1020.8
20260902150439 28 168 3.2 4.8 0.00 0.00 0.00 71 1021.0
20260902145939 28 0.0 3.2 0.00 0.00 0.00 72 1020.9
20260902145519 28 295 1.6 3.2 0.00 0.00 0.00 73 1020.9
20260902144958 28 300 3.2 4.8 0.00 0.00 0.00 72 1020.9
20260902144439 28 284 3.2 4.8 0.00 0.00 0.00 74 1020.8
20260902143939 28 2 1.6 3.2 0.00 0.00 0.00 74 1020.7
20260902143439 27 134 1.6 4.8 0.00 0.00 0.00 75 1020.7
20260902142938 27 347 3.2 3.2 0.00 0.00 0.00 75 1020.8
20260902142439 27 60 3.2 3.2 0.00 0.00 0.00 75 1020.8
20260902141939 27 198 1.6 3.2 0.00 0.00 0.00 77 1020.8
20260902141438 27 22 3.2 3.2 0.00 0.00 0.00 78 1020.9
20260902140939 27 81 1.6 4.8 0.00 0.00 0.00 78 1020.9
20260902140438 27 232 1.6 3.2 0.00 0.00 0.00 78 1020.9
20260902135938 26 0.0 3.2 0.00 0.00 0.00 78 1020.9
20260902135439 26 191 3.2 3.2 0.00 0.00 0.00 79 1020.7
20260902134938 26 143 1.6 3.2 0.00 0.00 0.00 80 1020.8
20260902134438 26 213 1.6 4.8 0.00 0.00 0.00 82 1020.7
20260902133938 25 82 3.2 4.8 0.00 0.00 0.00 82 1020.8
20260902133438 25 94 3.2 4.8 0.00 0.00 0.00 83 1020.9
20260902132939 25 72 1.6 3.2 0.00 0.00 0.00 84 1020.9
20260902132439 25 0.0 3.2 0.00 0.00 0.00 84 1021.0
20260902131959 25 0.0 4.8 0.00 0.00 0.00 84 1020.8
20260902131439 25 232 1.6 6.4 0.00 0.00 0.00 85 1020.9
20260902130938 24 240 3.2 4.8 0.00 0.00 0.00 86 1020.8
20260902130438 24 200 1.6 4.8 0.00 0.00 0.00 88 1020.7
20260902125939 24 266 1.6 3.2 0.00 0.00 0.00 87 1020.8
20260902125459 23 186 1.6 4.8 0.00 0.00 0.00 89 1020.7
20260902124939 23 0.0 1.6 0.00 0.00 0.00 91 1020.5
20260902124439 22 65 1.6 1.6 0.00 0.00 0.00 93 1020.6
20260902123938 22 0.0 3.2 0.00 0.00 0.00 95 1020.6
20260902123438 21 0.0 1.6 0.00 0.00 0.00 95 1020.6
20260902122939 21 0.0 1.6 0.00 0.00 0.00 95 1020.5
20260902122439 21 0.0 1.6 0.00 0.00 0.00 95 1020.6
20260902121938 21 115 1.6 1.6 0.00 0.00 0.00 95 1020.4
20260902121438 21 134 1.6 3.2 0.00 0.00 0.00 95 1020.5
20260902120958 21 0.0 3.2 0.00 0.00 0.00 95 1020.6
20260902120439 21 0.0 3.2 0.00 0.00 0.00 95 1020.5
20260902115938 21 0.0 3.2 0.00 0.00 0.00 95 1020.5
20260902115538 20 133 1.6 3.2 0.00 0.00 0.00 95 1020.4
20260902114939 20 167 1.6 3.2 0.00 0.00 0.00 95 1020.3
20260902114438 20 54 1.6 3.2 0.00 0.00 0.00 95 1020.1
20260902113938 20 149 1.6 3.2 0.00 0.00 0.00 95 1020.3
20260902113618 20 0.0 3.2 0.00 0.00 0.00 95 1020.0
20260902112938 20 98 3.2 4.8 0.00 0.00 0.00 95 1020.0
20260902112438 20 150 3.2 3.2 0.00 0.00 0.00 95 1020.0
20260902111939 20 60 1.6 3.2 0.00 0.00 0.00 95 1020.0
20260902111438 20 0.0 3.2 0.00 0.00 0.00 95 1019.9
20260902110938 20 335 1.6 3.2 0.00 0.00 0.00 95 1020.0
20260902110438 20 344 1.6 3.2 0.00 0.00 0.00 95 1019.9
20260902105939 20 278 1.6 3.2 0.00 0.00 0.00 95 1019.8
20260902105438 20 74 1.6 3.2 0.00 0.00 0.00 95 1019.8
20260902104938 20 0.0 3.2 0.00 0.00 0.00 95 1019.8
20260902104458 20 0.0 3.2 0.00 0.00 0.00 95 1019.7
20260902103959 20 163 1.6 3.2 0.00 0.00 0.00 95 1019.6
20260902103439 20 96 1.6 3.2 0.00 0.00 0.00 95 1019.8
20260902102938 20 0.0 3.2 0.00 0.00 0.00 95 1019.8
20260902102458 20 130 1.6 4.8 0.00 0.00 0.00 95 1019.8
20260902101938 20 148 1.6 3.2 0.00 0.00 0.00 95 1019.8
20260902101439 20 264 1.6 3.2 0.00 0.00 0.00 95 1019.6
20260902100940 20 356 1.6 3.2 0.00 0.00 0.00 95 1019.6
20260902100438 20 316 1.6 3.2 0.00 0.00 0.00 95 1019.4
20260902095938 20 315 3.2 3.2 0.00 0.00 0.00 95 1019.6
20260902095438 20 257 3.2 3.2 0.00 0.00 0.00 95 1019.6
20260902094939 20 353 3.2 3.2 0.00 0.00 0.00 95 1019.5
20260902094438 20 0.0 3.2 0.00 0.00 0.00 95 1019.3
20260902093938 20 267 1.6 4.8 0.00 0.00 0.00 95 1019.5
20260902093438 20 0.0 3.2 0.00 0.00 0.00 95 1019.6
20260902092938 20 77 1.6 3.2 0.00 0.00 0.00 95 1019.6
20260902092438 20 144 1.6 3.2 0.00 0.00 0.00 95 1019.6
20260902091938 20 59 1.6 3.2 0.00 0.00 0.00 95 1019.5
20260902091438 20 0.0 0.0 0.00 0.00 0.00 95 1019.5
20260902090938 20 0.0 0.0 0.00 0.00 0.00 95 1019.4
20260902090458 20 0.0 0.0 0.00 0.00 0.00 95 1019.6
20260902085938 20 0.0 0.0 0.00 0.00 0.00 95 1019.4
20260902085438 20 0.0 1.6 0.00 0.00 0.00 95 1019.3
20260902084939 20 0.0 0.0 0.00 0.00 0.00 95 1019.2
20260902084438 20 0.0 0.0 0.00 0.00 0.00 95 1019.2
20260902083938 20 0.0 0.0 0.00 0.00 0.00 95 1019.0
20260902083438 20 0.0 0.0 0.00 0.00 0.00 95 1019.1
20260902082938 20 0.0 0.0 0.00 0.00 0.00 95 1019.1
20260902082438 20 0.0 0.0 0.00 0.00 0.00 95 1019.3
20260902081938 21 0.0 0.0 0.00 0.00 0.00 95 1019.2
20260902081438 21 0.0 0.0 0.00 0.00 0.00 95 1019.1
20260902080939 20 0.0 0.0 0.00 0.00 0.00 95 1019.0
20260902080439 21 0.0 0.0 0.00 0.00 0.00 95 1019.0
20260902075939 21 0.0 0.0 0.00 0.00 0.00 95 1019.1
20260902075439 21 0.0 0.0 0.00 0.00 0.00 95 1019.1
20260902074939 21 0.0 0.0 0.00 0.00 0.00 95 1019.1
20260902074439 21 0.0 0.0 0.00 0.00 0.00 95 1019.1
20260902073959 21 0.0 0.0 0.00 0.00 0.00 95 1019.2
20260902073439 21 0.0 0.0 0.00 0.00 0.00 95 1019.2
20260902072939 21 0.0 0.0 0.00 0.00 0.00 95 1019.3
20260902072439 21 0.0 0.0 0.00 0.00 0.00 95 1019.2
20260902072019 21 0.0 0.0 0.00 0.00 0.00 95 1019.1
20260902071459 21 0.0 0.0 0.00 0.00 0.00 95 1019.1
20260902070939 21 0.0 0.0 0.00 0.00 0.00 95 1019.2
20260902070439 21 0.0 0.0 0.00 0.00 0.00 95 1019.0
20260902065939 21 0.0 0.0 0.00 0.00 0.00 95 1019.1
20260902065439 21 0.0 0.0 0.00 0.00 0.00 95 1019.1
20260902064939 21 0.0 0.0 0.00 0.00 0.00 95 1019.0
20260902064439 21 0.0 0.0 0.00 0.00 0.00 95 1019.2
20260902063939 21 0.0 0.0 0.00 0.00 0.00 95 1019.1
20260902063438 21 0.0 0.0 0.00 0.00 0.00 95 1019.2
20260902062959 21 0.0 0.0 0.00 0.00 0.00 95 1019.1
20260902062439 21 0.0 0.0 0.00 0.00 0.00 95 1019.3
20260902061939 21 0.0 0.0 0.00 0.00 0.00 95 1019.4
20260902061458 21 0.0 0.0 0.00 0.00 0.00 95 1019.4
20260902060938 21 0.0 0.0 0.00 0.00 0.00 95 1019.3
20260902060438 21 0.0 0.0 0.00 0.00 0.00 95 1019.4